Weather History for Grand Junction, CO

Change the Weather History Date:

Tuesday, February 11, 2014

  Actual Average Record
Temperature  
Mean Temperature 35 °F 33 °F  
Max Temperature 43 °F 44 °F 67 °F (1962)
Min Temperature 26 °F 23 °F -11 °F (1929)
Degree Days  
Heating Degree Days 30 32  
Month to date heating degree days 423 370  
Since 1 July heating degree days 4532 3896  
Cooling Degree Days 0 0  
Month to date cooling degree days 0 0  
Year to date cooling degree days 0 0  
Moisture  
Dew Point 26 °F    
Average Humidity 77    
Maximum Humidity 100    
Minimum Humidity 53    
Precipitation  
Precipitation 0.00 in 0.01 in 0.42 in (1905)
Month to date precipitation 0.55 0.19  
Year to date precipitation 1.22 0.77  
Snow  
Snow 0.00 in 0.10 in 7.40 in (1905)
Month to date snowfall 2.6 1.4  
Since 1 July snowfall 25.7 13.7  
Snow Depth 1.00 in    
Sea Level Pressure  
Sea Level Pressure 30.18 in    
Wind  
Wind Speed 5 mph (ESE)    
Max Wind Speed 15 mph    
Max Gust Speed 17 mph    
Visibility 10 miles    
Events      
T = Trace of Precipitation, MM = Missing Value Source: NWS Daily Summary

Daily Weather History Graph

Daily Weather History Graph

Search for Another Location

Airport:

Trip Planner

Search our weather history database for the weather conditions in past years. The results will help you decide how hot, cold, wet, or windy it might be!

Date:

Astronomy

Feb. 11, 2014 Rise Set
Actual Time 7:10 AM MST 5:46 PM MST
Civil Twilight 6:42 AM MST 6:14 PM MST
Nautical Twilight 6:11 AM MST 6:45 PM MST
Astronomical Twilight 5:40 AM MST 7:17 PM MST
Moon 3:10 PM MST (2/11) 4:49 AM MST (2/11)
Length of Visible Light 11h 31m
Length of Day
10h 36m
Waxing Gibbous, 91% of the Moon is Illuminated
Feb 11
Waxing Gibbous
Feb 14
Full
Feb 22
Last Quarter
Mar 1
New
Mar 8
First Quarter

Hourly Weather History & Observations

Time (MST) Temp. Windchill Dew Point Humidity Pressure Visibility Wind Dir Wind Speed Gust Speed Precip Events Conditions
12:10 AM 30.0 °F - 30.0 °F 100% 30.14 in 2.5 mi Calm Calm - N/A   Overcast
12:17 AM 30.9 °F - 30.9 °F 100% 30.15 in 10.0 mi Calm Calm - N/A   Overcast
12:53 AM 32.0 °F 26.4 °F 32.0 °F 100% 30.18 in 9.0 mi South 5.8 mph - N/A   Overcast
1:53 AM 30.0 °F 23.2 °F 28.9 °F 96% 30.18 in 5.0 mi SE 6.9 mph - N/A   Scattered Clouds
2:53 AM 30.9 °F 21.7 °F 23.0 °F 72% 30.17 in 10.0 mi East 11.5 mph - N/A   Clear
3:53 AM 30.9 °F 22.8 °F 23.0 °F 72% 30.17 in 10.0 mi ENE 9.2 mph - N/A   Clear
4:53 AM 28.9 °F 22.8 °F 23.0 °F 78% 30.18 in 10.0 mi ESE 5.8 mph - N/A   Scattered Clouds
5:02 AM 28.9 °F 21.9 °F 23.0 °F 78% 30.15 in 10.0 mi SE 6.9 mph - N/A   Mostly Cloudy
5:53 AM 27.0 °F 20.5 °F 23.0 °F 85% 30.18 in 10.0 mi SSE 5.8 mph - N/A   Overcast
6:00 AM 27.0 °F 23.0 °F 23.0 °F 85% 30.15 in 10.0 mi SE 3.5 mph - N/A   Overcast
6:53 AM 30.0 °F - 23.0 °F 75% 30.20 in 10.0 mi Calm Calm - N/A   Overcast
7:53 AM 26.1 °F 16.8 °F 21.0 °F 81% 30.21 in 10.0 mi SE 9.2 mph - N/A   Partly Cloudy
8:53 AM 28.0 °F 20.0 °F 23.0 °F 81% 30.20 in 10.0 mi ESE 8.1 mph - N/A   Partly Cloudy
9:53 AM 30.0 °F 22.4 °F 24.1 °F 79% 30.21 in 10.0 mi SE 8.1 mph - N/A   Clear
10:53 AM 35.1 °F - 24.1 °F 64% 30.22 in 10.0 mi Calm Calm - N/A   Clear
11:53 AM 36.0 °F 29.0 °F 26.1 °F 67% 30.20 in 10.0 mi ESE 9.2 mph - N/A   Partly Cloudy
12:53 PM 39.0 °F 35.7 °F 25.0 °F 57% 30.14 in 10.0 mi ESE 4.6 mph - N/A   Clear
1:53 PM 39.0 °F 34.8 °F 24.1 °F 55% 30.11 in 10.0 mi South 5.8 mph - N/A   Clear
2:53 PM 42.1 °F 40.2 °F 26.1 °F 53% 30.09 in 10.0 mi East 3.5 mph - N/A   Clear
3:53 PM 39.9 °F 35.8 °F 26.1 °F 58% 30.12 in 10.0 mi NNW 5.8 mph - N/A   Clear
4:53 PM 37.9 °F - 25.0 °F 60% 30.14 in 10.0 mi Calm Calm - N/A   Clear
5:53 PM 33.1 °F - 28.0 °F 82% 30.18 in 10.0 mi Calm Calm - N/A   Clear
6:53 PM 30.9 °F 27.5 °F 28.0 °F 89% 30.18 in 10.0 mi NNE 3.5 mph - N/A   Clear
7:53 PM 32.0 °F 28.7 °F 28.0 °F 85% 30.22 in 10.0 mi NNE 3.5 mph - N/A   Scattered Clouds
8:53 PM 33.1 °F 30.0 °F 28.0 °F 82% 30.24 in 10.0 mi East 3.5 mph - N/A   Overcast
9:53 PM 30.9 °F 25.2 °F 27.0 °F 85% 30.25 in 10.0 mi ENE 5.8 mph - N/A   Mostly Cloudy
10:53 PM 30.0 °F 25.2 °F 26.1 °F 85% 30.25 in 10.0 mi East 4.6 mph - N/A   Clear
11:53 PM 30.0 °F 24.1 °F 26.1 °F 85% 30.26 in 10.0 mi East 5.8 mph - N/A   Clear